Location: Pagani
(40.7500°N, 14.6167°E)
Time: 19:55:19
(UTC+00:00)

CZ-2C R/B - Pass Details

Date: 15 May 2026
Orbit: 703 x 901 km, 98.2° (Epoch: 8 June)

Event Time Altitude Azimuth Distance (km) Brightness Sun altitude
Rises 23:01:38 0° 11° (N) 3,510 7.6 -30.2°
Reaches altitude 10° 23:04:02 10° 10° (N) 2,577 6.6 -30.2°
Enters shadow 23:09:27 75° 327° (NNW) 935 3.4 -30.1°
